Date String (YYYY-MM-DD hh:mm:ss) UTC,Instrument flags,absolute air pressure of the measurement (hPa),sample flow rate (lpm),inlet stack bypass flow (lpm),air temperature of the measurement (°C),ambient temperature measured by the external sensor (°C),aerosol sample conditioner tube jacket temperature (°C),OPC LED temperature (°C),internal box temperature (°C),relative humidity of the measurement (%),span deviation,mass concentration of particles derived from Lorenz-Mie calculation of OPC scattering (μg/m³),mass concentration of particles derived from Lorenz-Mie calculation of OPC scattering (μg/m³),mass concentration of particles derived from Lorenz-Mie calculation of OPC scattering (μg/m³)
DateTimeUTC,F1_M11,P_M11,Q1_M11,Q2_M11,T1_M11,T2_M11,T3_M11,T4_M11,T5_M11,U1_M11,ZSPAN_M11,X2_M11,X0_M11,X1_M11
2023-07-08 06:00:00,SystemResetWarning,0833.6,5.01,000.00,029.8,028.6,000.0,038.2,031.3,29.3,-001.2,0005.48,0008.74,0005.05
2023-07-08 06:01:00,SystemResetWarning,0833.7,4.99,000.00,029.8,028.6,000.0,038.3,031.4,29.0,-001.8,0005.46,0009.12,0005.05
2023-07-08 06:02:00,SystemResetWarning,0833.7,4.99,000.00,029.8,028.7,000.0,038.3,031.4,29.3,-002.0,0005.46,0009.08,0005.05
2023-07-08 06:03:00,SystemResetWarning,0833.7,4.99,000.00,029.8,028.7,000.0,038.3,031.4,29.5,-001.5,0005.47,0008.76,0005.06
2023-07-08 06:04:00,SystemResetWarning,0833.7,5.00,000.00,029.9,028.7,000.0,038.3,031.4,29.8,-001.4,0005.48,0008.82,0005.07
2023-07-08 06:05:00,SystemResetWarning,0833.7,5.00,000.00,029.9,028.7,000.0,038.3,031.4,29.9,-000.9,0005.45,0009.19,0005.06
2023-07-08 06:06:00,SystemResetWarning,0833.7,5.01,000.00,029.9,028.7,000.0,038.3,031.5,30.1,-000.7,0005.47,0009.26,0005.06
2023-07-08 06:07:00,SystemResetWarning,0833.7,5.00,000.00,029.9,028.0,000.0,038.3,031.4,29.9,-000.3,0005.47,0009.42,0005.06
2023-07-08 06:08:00,SystemResetWarning,0833.7,4.99,000.00,029.9,026.1,000.0,038.2,031.2,29.7,0000.7,0005.44,0009.52,0005.06
2023-07-08 06:09:00,SystemResetWarning,0833.6,5.00,000.00,029.8,025.3,000.0,038.1,030.9,29.9,0000.6,0005.49,0009.66,0005.07
2023-07-08 06:10:00,SystemResetWarning,0833.6,5.01,000.00,029.6,025.5,000.0,038.1,030.6,30.0,0000.3,0005.50,0010.00,0005.07
2023-07-08 06:11:00,SystemResetWarning,0833.6,5.01,000.00,029.5,025.8,000.0,038.1,030.6,30.1,0000.4,0005.48,0010.10,0005.06
2023-07-08 06:12:00,SystemResetWarning,0833.5,4.99,000.00,029.5,026.2,000.0,038.1,030.7,30.1,0001.0,0005.51,0009.77,0005.07
2023-07-08 06:13:00,SystemResetWarning,0833.5,5.00,000.00,029.5,026.6,000.0,038.1,030.8,30.3,0001.4,0005.51,0009.65,0005.07
2023-07-08 06:14:00,SystemResetWarning,0833.6,5.00,000.00,029.5,026.9,000.0,038.1,030.9,30.0,0000.9,0005.50,0009.92,0005.07
2023-07-08 06:15:00,SystemResetWarning,0833.6,5.01,000.00,029.5,027.2,000.0,038.1,030.9,29.7,0000.8,0005.51,0010.24,0005.07
2023-07-08 06:16:00,SystemResetWarning,0833.6,4.99,000.00,029.5,027.4,000.0,038.1,030.9,29.3,0000.8,0005.53,0009.79,0005.08
2023-07-08 06:17:00,SystemResetWarning,0833.7,4.99,000.00,029.5,027.6,000.0,038.1,031.0,29.3,0000.5,0005.54,0009.84,0005.08
2023-07-08 06:18:00,SystemResetWarning,0833.7,5.00,000.00,029.5,027.8,000.0,038.1,031.0,29.5,0000.2,0005.59,0009.84,0005.09
2023-07-08 06:19:00,SystemResetWarning,0833.7,5.01,000.00,029.5,027.9,000.0,038.1,031.0,29.6,-000.1,0005.64,0010.05,0005.09
2023-07-08 06:20:00,SystemResetWarning,0833.7,5.00,000.00,029.5,028.0,000.0,038.1,031.1,29.7,0000.0,0005.62,0010.49,0005.09
2023-07-08 06:21:00,SystemResetWarning,0833.8,5.00,000.00,029.6,028.1,000.0,038.1,031.1,29.3,-000.4,0005.60,0010.13,0005.08
2023-07-08 06:22:00,SystemResetWarning,0833.8,5.00,000.00,029.6,028.2,000.0,038.1,031.1,29.2,-000.9,0005.61,0010.01,0005.07
2023-07-08 06:23:00,SystemResetWarning,0833.8,5.00,000.00,029.6,028.3,000.0,038.1,031.2,29.5,-001.3,0005.60,0010.03,0005.07
2023-07-08 06:24:00,SystemResetWarning,0833.8,5.00,000.00,029.6,028.3,000.0,038.1,031.2,29.6,-001.5,0005.60,0010.00,0005.07
2023-07-08 06:25:00,SystemResetWarning,0833.8,5.00,000.00,029.6,028.4,000.0,038.1,031.2,29.3,-001.8,0005.61,0010.32,0005.06
2023-07-08 06:26:00,SystemResetWarning,0833.8,5.01,000.00,029.7,028.4,000.0,038.2,031.2,29.1,-001.6,0005.60,0010.72,0005.05
2023-07-08 06:27:00,SystemResetWarning,0833.7,5.01,000.00,029.7,028.5,000.0,038.2,031.3,28.9,-001.6,0005.59,0010.73,0005.06
2023-07-08 06:28:00,SystemResetWarning,0833.8,5.00,000.00,029.7,028.5,000.0,038.2,031.3,28.6,-001.5,0005.57,0010.61,0005.06
2023-07-08 06:29:00,SystemResetWarning,0833.8,5.00,000.00,029.7,028.5,000.0,038.2,031.3,28.5,-001.8,0005.58,0010.66,0005.07
2023-07-08 06:30:00,SystemResetWarning,0833.9,5.00,000.00,029.8,028.5,000.0,038.2,031.3,28.4,-001.9,0005.56,0010.86,0005.06
2023-07-08 06:31:00,SystemResetWarning,0833.8,5.00,000.00,029.8,028.6,000.0,038.3,031.3,28.4,-002.0,0005.55,0010.37,0005.05
2023-07-08 06:32:00,SystemResetWarning,0833.8,5.00,000.00,029.8,028.6,000.0,038.3,031.4,28.4,-001.9,0005.54,0010.33,0005.07
2023-07-08 06:33:00,SystemResetWarning,0833.9,5.00,000.00,029.8,028.6,000.0,038.3,031.4,28.5,-002.0,0005.53,0010.26,0005.08
2023-07-08 06:34:00,SystemResetWarning,0834.0,5.00,000.00,029.8,028.7,000.0,038.3,031.4,28.7,-001.8,0005.51,0010.19,0005.08
2023-07-08 06:35:00,SystemResetWarning,0833.9,5.00,000.00,029.9,028.7,000.0,038.3,031.4,28.8,-001.8,0005.52,0010.27,0005.08
2023-07-08 06:36:00,SystemResetWarning,0833.9,4.99,000.00,029.9,028.7,000.0,038.3,031.4,28.8,-001.4,0005.50,0009.91,0005.08
2023-07-08 06:37:00,SystemResetWarning,0833.9,5.00,000.00,029.9,028.7,000.0,038.4,031.4,28.8,-001.4,0005.52,0009.05,0005.09
2023-07-08 06:38:00,SystemResetWarning,0833.8,5.00,000.00,029.9,028.6,000.0,038.4,031.5,28.7,-001.4,0005.50,0008.97,0005.09
2023-07-08 06:39:00,SystemResetWarning,0833.9,4.99,000.00,029.9,026.8,000.0,038.3,031.3,29.0,-001.3,0005.55,0009.10,0005.10
2023-07-08 06:40:00,SystemResetWarning,0833.8,5.00,000.00,029.8,025.5,000.0,038.1,031.1,29.1,-001.0,0005.53,0009.10,0005.10
2023-07-08 06:41:00,SystemResetWarning,0833.8,5.01,000.00,029.7,025.4,000.0,038.1,030.8,29.2,-000.8,0005.51,0008.43,0005.11
2023-07-08 06:42:00,SystemResetWarning,0833.8,5.01,000.00,029.6,025.7,000.0,038.1,030.7,29.5,-000.7,0005.51,0008.35,0005.13
2023-07-08 06:43:00,SystemResetWarning,0833.8,5.00,000.00,029.5,026.1,000.0,038.1,030.7,29.7,-000.7,0005.51,0008.34,0005.13
2023-07-08 06:44:00,SystemResetWarning,0833.8,5.00,000.00,029.5,026.5,000.0,038.1,030.8,30.2,-000.3,0005.52,0008.40,0005.13
2023-07-08 06:45:00,SystemResetWarning,0833.9,5.00,000.00,029.5,026.8,000.0,038.1,030.9,30.4,-000.2,0005.56,0008.63,0005.13
2023-07-08 06:46:00,SystemResetWarning,0833.8,4.99,000.00,029.5,027.1,000.0,038.1,030.9,30.4,-000.2,0005.59,0008.72,0005.14
2023-07-08 06:47:00,SystemResetWarning,0833.8,4.99,000.00,029.5,027.4,000.0,038.1,030.9,30.7,0000.1,0005.60,0008.65,0005.15
2023-07-08 06:48:00,SystemResetWarning,0833.8,5.02,000.00,029.5,027.6,000.0,038.1,031.0,31.1,0000.4,0005.59,0008.66,0005.16
2023-07-08 06:49:00,SystemResetWarning,0833.8,5.00,000.00,029.5,027.7,000.0,038.1,031.0,31.3,0000.2,0005.63,0008.81,0005.16
2023-07-08 06:50:00,SystemResetWarning,0833.9,4.99,000.00,029.5,027.9,000.0,038.1,031.1,30.9,0000.1,0005.61,0008.77,0005.15
2023-07-08 06:51:00,SystemResetWarning,0834.0,5.00,000.00,029.5,028.0,000.0,038.1,031.1,31.0,0000.7,0005.59,0008.72,0005.14
2023-07-08 06:52:00,SystemResetWarning,0833.9,5.00,000.00,029.6,028.1,000.0,038.1,031.1,31.5,0000.4,0005.61,0009.12,0005.14
2023-07-08 06:53:00,SystemResetWarning,0833.8,5.00,000.00,029.6,028.2,000.0,038.1,031.1,31.3,0000.8,0005.61,0009.53,0005.12
2023-07-08 06:54:00,SystemResetWarning,0833.8,5.00,000.00,029.6,028.3,000.0,038.1,031.2,31.7,0000.9,0005.62,0009.86,0005.12
2023-07-08 06:55:00,SystemResetWarning,0833.8,5.00,000.00,029.6,028.3,000.0,038.1,031.2,31.6,0001.0,0005.64,0009.87,0005.12
2023-07-08 06:56:00,SystemResetWarning,0833.8,5.00,000.00,029.7,028.4,000.0,038.2,031.2,31.1,0001.0,0005.64,0009.72,0005.12
2023-07-08 06:57:00,SystemResetWarning,0833.8,5.00,000.00,029.7,028.4,000.0,038.2,031.2,31.4,0000.7,0005.61,0009.61,0005.12
2023-07-08 06:58:00,SystemResetWarning,0833.8,5.01,000.00,029.7,028.5,000.0,038.2,031.3,31.4,0000.7,0005.60,0009.81,0005.11
2023-07-08 06:59:00,SystemResetWarning,0833.8,5.00,000.00,029.7,028.5,000.0,038.2,031.3,31.1,0000.6,0005.58,0009.93,0005.10
